STARLINK-11352, 62880

Orbit data source: Space-Track

STARLINK-11352, 62880 is a payload satellite owned by SpaceX/Seattle (US) in LEO that was launched on Tue, 04 Feb 2025 UTC via an FALCON 9 launch vehicle from the Air Force Eastern Test Range (AFETR). Payload-class satellites include a variety of spacecraft equipped with specific instruments for various scientific and technological missions. These include communications satellites like Starlink; space stations such as the ISS; scientific satellites like the Hubble; Earth observation satellites from companies like Planet Labs, Umbra, and HawkEye 360; GPS; miniature CubeSats for education and research; and military/defense satellites.

Loading next visibility...
Identifier
62880, 2025-024B
Orbit
LEO
Country
Flag of USUS
Related business
Manufacturer
SpaceX/Seattle
Mission
Operational Commercial Communications
Bus & Motor
STARLINK V2MD, Unknown motor
Mass
960 kg wet, ~910 kg dry
Launch date (UTC)
2025-02-04 (7 months ago)
Launch vehicle
FALCON 9
Launch site
Air Force Eastern Test Range (AFETR)
Object type
Payload
Rocket body
Debris
Shape & HBR
Box + 2 Pan, 14.5 m
Radar Cross Section
36.964 m², Large (>1 m²)

Expand to show TLE details & history
Last TLE update: 21 hours ago

TLE from 21 hours ago
0 STARLINK-11352
1 62880U 25024B   25261.08992552  .00259749  00000-0  19449-2 0  9998
2 62880  42.9979 141.6111 0003458 237.6948 122.3585 15.71084992 36326
Epoch: 2025-09-18T02:09Z
TLE epoch observation values (Epoch: 2025-09-18T02:09:29.564Z)
Latitude
-0.00004°
Longitude
111.98136°
Altitude
356.813 km
Speed
7.696 km/s
True Right ascension
09h 26m 26s
True Declination
0° 00' 00"
Sunlit
Object was in daylight at epoch
Visualization orbit readout
Latitude
Unknown
Longitude
Unknown
Altitude
Unknown
Speed
Unknown
Apparent Right ascension
Unknown
Apparent Declination
Unknown
Sunlit
N/A
Visualization observer readout
Local Sidereal Time
15:49:36
Azimuth
Unknown
Elevation
Unknown
Doppler factor
Unknown
Orbital elements
Apogee altitude
360.106 km
Perigee altitude
355.448 km
Semi-major axis
6,735.914 km
Eccentricity
0.00035
Inclination
42.9979°
RAAN
141.6111°
Arg. of periapsis
237.6948°
True anomaly
122.39196°
Mean anomaly
122.3585°
Eccentric anomaly
122.37523°
Mean motion
3.92598 °/min
Orbital period
91.7 mins
BSTAR
0.0019449
Loading maneuver chart data...
Computing Atmospheric mass density...
Loading historical data...
Loading historical data...
Loading historical data...
Loading historical data...
Loading historical data...
Loading historical data...
Loading historical data...

Documentation

Showing up to 5 results
|